Location: Cheyres
(46.8153°N, 6.7877°E)
Time: 00:36:37
(UTC+00:00)

Cosmos 2184 Rocket - Pass Details

Date: 11 May 2021
Orbit: 958 x 1003 km, 82.9° (Epoch: 23 June)

Event Time Altitude Azimuth Distance (km) Brightness Sun altitude
Rises 21:05:04 0° 351° (N) 3,686 8.2 -17.4°
Reaches altitude 10° 21:07:36 10° 351° (N) 2,728 7.3 -17.7°
Maximum altitude 21:13:51 90° 64° (ENE) 972 3.9 -18.3°
Enters shadow 21:17:25 27° 173° (S) 1,748 4.8 -18.6°
